| time (UTC) | temp C | wind direction | speed KPH | gust KPH | rain 1hr cm | rain 24hr cm | rain mn cm | humidity % | barometer mb |
| 20260505035016 | 17 | 180 | 6.4 | 8.0 | 0.00 | 0.00 | 0.00 | 64 | 1003.8 |
| 20260505034016 | 17 | 203 | 3.2 | 4.8 | 0.00 | 0.00 | 0.00 | 63 | 1003.8 |
| 20260505033017 | 17 | 225 | 1.6 | 4.8 | 0.00 | 0.00 | 0.00 | 59 | 1003.9 |
| 20260505032017 | 16 | 180 | 3.2 | 4.8 | 0.00 | 0.00 | 0.00 | 60 | 1004.0 |
| 20260505031017 | 13 | 203 | 4.8 | 16.1 | 0.00 | 0.00 | 0.00 | 71 | 1003.6 |
| 20260505030016 | 13 | 0.0 | 0.0 | 0.00 | 0.00 | 0.00 | 70 | 1003.5 | |
| 20260505025016 | 13 | 0.0 | 0.0 | 0.00 | 0.00 | 0.00 | 70 | 1003.5 | |
| 20260505024017 | 13 | 0.0 | 0.0 | 0.00 | 0.00 | 0.00 | 70 | 1003.4 | |
| 20260505023016 | 13 | 0.0 | 0.0 | 0.00 | 0.00 | 0.00 | 68 | 1003.4 | |
| 20260505022036 | 13 | 0.0 | 0.0 | 0.00 | 0.00 | 0.00 | 67 | 1003.5 | |
| 20260505021016 | 13 | 0.0 | 0.0 | 0.00 | 0.00 | 0.00 | 66 | 1003.6 | |
| 20260505020016 | 13 | 0.0 | 0.0 | 0.00 | 0.00 | 0.00 | 66 | 1003.7 | |
| 20260505015016 | 14 | 0.0 | 0.0 | 0.00 | 0.00 | 0.00 | 65 | 1003.8 | |
| 20260505014016 | 14 | 0.0 | 0.0 | 0.00 | 0.00 | 0.00 | 64 | 1003.8 | |
| 20260505013016 | 15 | 0.0 | 0.0 | 0.00 | 0.00 | 0.00 | 62 | 1003.7 | |
| 20260505012036 | 15 | 0.0 | 0.0 | 0.00 | 0.00 | 0.00 | 60 | 1003.6 | |
| 20260505011016 | 15 | 0.0 | 0.0 | 0.00 | 0.00 | 0.00 | 59 | 1003.5 | |
| 20260505010016 | 16 | 0.0 | 0.0 | 0.00 | 0.00 | 0.00 | 58 | 1003.4 | |
| 20260505005016 | 16 | 0.0 | 0.0 | 0.00 | 0.00 | 0.00 | 56 | 1003.5 | |
| 20260505004016 | 17 | 0.0 | 0.0 | 0.00 | 0.00 | 0.00 | 54 | 1003.4 | |
| 20260505003016 | 17 | 0.0 | 0.0 | 0.00 | 0.00 | 0.00 | 51 | 1003.5 | |
| 20260505002016 | 18 | 0.0 | 0.0 | 0.00 | 0.00 | 0.00 | 49 | 1003.5 | |
| 20260505001016 | 19 | 0.0 | 0.0 | 0.00 | 0.00 | 0.00 | 45 | 1003.7 | |
| 20260505000036 | 20 | 0.0 | 0.0 | 0.00 | 0.00 | 0.00 | 43 | 1003.6 | |
| 20260504235016 | 21 | 0.0 | 0.0 | 0.00 | 0.00 | 0.00 | 42 | 1003.5 | |
| 20260504234016 | 21 | 0.0 | 0.0 | 0.00 | 0.00 | 0.00 | 41 | 1003.5 | |
| 20260504233036 | 21 | 338 | 1.6 | 4.8 | 0.00 | 0.00 | 0.00 | 40 | 1003.4 |
| 20260504232016 | 22 | 225 | 4.8 | 8.0 | 0.00 | 0.00 | 0.00 | 38 | 1003.4 |
| 20260504231016 | 22 | 203 | 1.6 | 3.2 | 0.00 | 0.00 | 0.00 | 36 | 1003.3 |
| 20260504230016 | 22 | 225 | 1.6 | 3.2 | 0.00 | 0.00 | 0.00 | 36 | 1003.4 |
| 20260504225016 | 22 | 203 | 1.6 | 3.2 | 0.00 | 0.00 | 0.00 | 36 | 1003.3 |
| 20260504224016 | 22 | 203 | 8.0 | 12.9 | 0.00 | 0.00 | 0.00 | 35 | 1003.2 |
| 20260504223016 | 23 | 203 | 4.8 | 8.0 | 0.00 | 0.00 | 0.00 | 34 | 1003.3 |
| 20260504222016 | 23 | 225 | 4.8 | 11.3 | 0.00 | 0.00 | 0.00 | 34 | 1003.2 |
| 20260504221016 | 23 | 203 | 1.6 | 1.6 | 0.00 | 0.00 | 0.00 | 35 | 1003.3 |
| 20260504220016 | 23 | 203 | 4.8 | 8.0 | 0.00 | 0.00 | 0.00 | 34 | 1003.3 |
| 20260504215016 | 23 | 225 | 6.4 | 14.5 | 0.00 | 0.00 | 0.00 | 35 | 1003.4 |
| 20260504214016 | 23 | 180 | 8.0 | 9.7 | 0.00 | 0.00 | 0.00 | 35 | 1003.4 |
| 20260504213015 | 23 | 180 | 8.0 | 11.3 | 0.00 | 0.00 | 0.00 | 36 | 1003.5 |
| 20260504212036 | 23 | 180 | 9.7 | 16.1 | 0.00 | 0.00 | 0.00 | 34 | 1003.6 |
| 20260504211016 | 23 | 225 | 6.4 | 9.7 | 0.00 | 0.00 | 0.00 | 37 | 1003.5 |
| 20260504210036 | 23 | 225 | 4.8 | 11.3 | 0.00 | 0.00 | 0.00 | 37 | 1003.7 |
| 20260504205016 | 23 | 225 | 8.0 | 19.3 | 0.00 | 0.00 | 0.00 | 36 | 1003.7 |
| 20260504204035 | 23 | 203 | 8.0 | 9.7 | 0.00 | 0.00 | 0.00 | 36 | 1003.9 |
| 20260504203036 | 23 | 225 | 3.2 | 8.0 | 0.00 | 0.00 | 0.00 | 36 | 1003.9 |
| 20260504202015 | 23 | 203 | 4.8 | 12.9 | 0.00 | 0.00 | 0.00 | 37 | 1004.0 |
| 20260504201015 | 24 | 203 | 11.3 | 24.1 | 0.00 | 0.00 | 0.00 | 35 | 1004.1 |
| 20260504200015 | 23 | 248 | 6.4 | 11.3 | 0.00 | 0.00 | 0.00 | 36 | 1004.2 |
| 20260504195016 | 24 | 248 | 9.7 | 16.1 | 0.00 | 0.00 | 0.00 | 40 | 1004.4 |
| 20260504194015 | 24 | 293 | 3.2 | 9.7 | 0.00 | 0.00 | 0.00 | 38 | 1004.4 |
| 20260504193016 | 23 | 270 | 3.2 | 8.0 | 0.00 | 0.00 | 0.00 | 38 | 1004.6 |
| 20260504192015 | 23 | 338 | 4.8 | 6.4 | 0.00 | 0.00 | 0.00 | 36 | 1004.8 |
| 20260504191015 | 24 | 225 | 6.4 | 14.5 | 0.00 | 0.00 | 0.00 | 35 | 1004.9 |
| 20260504190016 | 23 | 203 | 9.7 | 17.7 | 0.00 | 0.00 | 0.00 | 36 | 1005.0 |
| 20260504185015 | 23 | 203 | 4.8 | 9.7 | 0.00 | 0.00 | 0.00 | 39 | 1005.0 |
| 20260504184035 | 23 | 225 | 4.8 | 11.3 | 0.00 | 0.00 | 0.00 | 42 | 1005.2 |
| 20260504183016 | 23 | 203 | 11.3 | 19.3 | 0.00 | 0.00 | 0.00 | 39 | 1005.4 |
| 20260504182035 | 23 | 270 | 6.4 | 12.9 | 0.00 | 0.00 | 0.00 | 42 | 1005.5 |
| 20260504181035 | 22 | 315 | 6.4 | 16.1 | 0.00 | 0.00 | 0.00 | 41 | 1005.5 |
| 20260504180016 | 22 | 203 | 4.8 | 8.0 | 0.00 | 0.00 | 0.00 | 44 | 1005.6 |
| 20260504175016 | 23 | 270 | 3.2 | 6.4 | 0.00 | 0.00 | 0.00 | 48 | 1005.7 |
| 20260504174015 | 22 | 293 | 6.4 | 11.3 | 0.00 | 0.00 | 0.00 | 44 | 1005.8 |
| 20260504173015 | 22 | 225 | 4.8 | 6.4 | 0.00 | 0.00 | 0.00 | 46 | 1005.9 |
| 20260504172015 | 22 | 293 | 6.4 | 11.3 | 0.00 | 0.00 | 0.00 | 50 | 1005.8 |
| 20260504171015 | 22 | 135 | 1.6 | 3.2 | 0.00 | 0.00 | 0.00 | 46 | 1005.9 |
| 20260504151015 | 19 | 225 | 4.8 | 12.9 | 0.00 | 0.00 | 0.00 | 49 | 1006.9 |
| 20260504141017 | 17 | 180 | 8.0 | 14.5 | 0.00 | 0.00 | 0.00 | 52 | 1006.8 |
| 20260504081016 | 10 | 180 | 3.2 | 4.8 | 0.00 | 0.00 | 0.00 | 62 | 1008.4 |
| 20260504050015 | 10 | 180 | 1.6 | 4.8 | 0.00 | 0.00 | 0.00 | 62 | 1009.4 |
| 20260504045035 | 10 | 203 | 1.6 | 1.6 | 0.00 | 0.00 | 0.00 | 61 | 1009.4 |
| 20260504044036 | 10 | 0.0 | 0.0 | 0.00 | 0.00 | 0.00 | 60 | 1009.4 | |
| 20260504043015 | 11 | 180 | 1.6 | 3.2 | 0.00 | 0.00 | 0.00 | 59 | 1009.4 |
| 20260504042015 | 11 | 180 | 3.2 | 6.4 | 0.00 | 0.00 | 0.00 | 57 | 1009.4 |
| 20260504041015 | 11 | 203 | 3.2 | 4.8 | 0.00 | 0.00 | 0.00 | 56 | 1009.4 |
| 20260504040015 | 12 | 225 | 3.2 | 4.8 | 0.00 | 0.00 | 0.00 | 54 | 1009.4 |